Home   Weather   India   Chandigarh   Past weeks
Flag for India

Past Weather in Chandigarh, Chandigarh, India — Yesterday and Last 2 Weeks

Currently: 90 °F. Fog. (Weather station: Amritsar Airport, India). See more current weather

Past Weather in Chandigarh — Graph

°F

Chandigarh Temperature Yesterday

Maximum temperature yesterday: 95 °F (at 2:30 pm)
Minimum temperature yesterday: 81 °F (at 4:30 am)
Average temperature yesterday: 88 °F

High & Low Weather Summary for the Past Weeks

 TemperatureHumidityPressure
High99 °F (Jul 18, 1:00 pm)100% (Jul 20, 6:30 am)29.59 "Hg (Jul 20, 6:30 am)
Low73 °F (Jul 21, 6:00 am)56% (Jul 24, 6:00 pm)29.33 "Hg (Jul 27, 6:00 pm)
Average85 °F87%29.47 "Hg
* Reported Jul 18 9:30 am — Aug 2 10:00 am, Chandigarh. Weather by CustomWeather, © 2021

Note: Actual official high and low records may vary slightly from our data, if they occured in-between our weather recording intervals... More about our weather records

Chandigarh Weather History for the Previous 24 Hours

Scroll right to see more
 ConditionsComfort  
Time TempWeatherWind HumidityBarometerVisibility
10:00 am
Mon, Aug 2
91 °FFog.5 mph75%29.53 "Hg2 mi
9:00 am88 °FFog.6 mph84%29.53 "Hg2 mi
8:30 am88 °FFog.6 mph84%29.50 "Hg2 mi
7:30 am84 °FFog.5 mph94%29.50 "Hg2 mi
7:00 am84 °FFog.No wind100%29.50 "Hg2 mi
6:30 am82 °FFog.No wind94%29.50 "Hg2 mi
5:30 am82 °FFog.No wind94%29.47 "Hg2 mi
5:00 am81 °FFog.No wind94%29.47 "Hg2 mi
4:30 am82 °FFog.No wind94%29.45 "Hg2 mi
3:00 am82 °FFog.No wind94%29.45 "Hg2 mi
2:30 am82 °FFog.2 mph94%29.45 "Hg2 mi
2:00 am82 °FFog.2 mph94%29.45 "Hg2 mi
1:30 am82 °FFog.2 mph94%29.45 "Hg2 mi
1:00 am82 °FFog.No wind94%29.47 "Hg2 mi
12:30 am84 °FFog.1 mph89%29.47 "Hg2 mi
12:00 am84 °FFog.6 mph89%29.50 "Hg2 mi
11:30 pm
Sun, Aug 1
86 °FFog.5 mph84%29.50 "Hg2 mi
11:00 pm86 °FFog.2 mph84%29.50 "Hg2 mi
10:30 pm86 °FFog.2 mph79%29.47 "Hg2 mi
10:00 pm86 °FFog.5 mph79%29.47 "Hg2 mi
9:30 pm84 °FFog.2 mph89%29.47 "Hg2 mi
9:00 pm84 °FFog.6 mph84%29.47 "Hg2 mi
8:30 pm84 °FFog.6 mph79%29.45 "Hg2 mi
8:00 pm84 °FPassing clouds.7 mph84%29.45 "Hg3 mi
7:30 pm86 °FScattered clouds.3 mph75%29.45 "Hg3 mi
7:00 pm88 °FScattered clouds.9 mph79%29.45 "Hg3 mi
6:30 pm93 °FScattered clouds.5 mph63%29.42 "Hg3 mi
6:00 pm93 °FScattered clouds.6 mph67%29.42 "Hg3 mi
5:30 pm93 °FScattered clouds.6 mph63%29.42 "Hg3 mi
5:00 pm93 °FScattered clouds.2 mph67%29.42 "Hg3 mi
4:30 pm93 °FScattered clouds.6 mph63%29.42 "Hg3 mi
4:00 pm95 °FScattered clouds.5 mph60%29.42 "Hg3 mi
3:30 pm95 °FScattered clouds.7 mph60%29.42 "Hg3 mi
3:00 pm93 °FScattered clouds.6 mph63%29.45 "Hg3 mi
2:30 pm95 °FScattered clouds.7 mph63%29.45 "Hg3 mi
2:00 pm93 °FScattered clouds.7 mph63%29.47 "Hg3 mi
1:30 pm93 °FScattered clouds.7 mph63%29.47 "Hg3 mi
12:30 pm91 °FScattered clouds.7 mph75%29.47 "Hg3 mi
12:00 pm91 °FScattered clouds.7 mph71%29.47 "Hg3 mi
11:30 am91 °FScattered clouds.6 mph71%29.47 "Hg4 mi
11:00 am91 °FScattered clouds.6 mph67%29.50 "Hg4 mi
Weather by CustomWeather, © 2021

See weather overview